owner,sensor,date,latitude,longitude,relative_humidity,qcFlag 
COMPS,ioos:station:USF.COMPS:FHP:1,2019-07-01T00:54:00,28.1530,-82.8010,70.81,11111222 
COMPS,ioos:station:USF.COMPS:FHP:1,2019-07-01T01:54:00,28.1530,-82.8010,74.15,11111222 
COMPS,ioos:station:USF.COMPS:FHP:1,2019-07-01T02:54:00,28.1530,-82.8010,67.29,11111222 
COMPS,ioos:station:USF.COMPS:FHP:1,2019-07-01T03:54:00,28.1530,-82.8010,72.42,11111222 
COMPS,ioos:station:USF.COMPS:FHP:1,2019-07-01T04:54:00,28.1530,-82.8010,71.27,11111222 
COMPS,ioos:station:USF.COMPS:FHP:1,2019-07-01T05:54:00,28.1530,-82.8010,71.69,11111222 
COMPS,ioos:station:USF.COMPS:FHP:1,2019-07-01T06:54:00,28.1530,-82.8010,73.03,11111222 
COMPS,ioos:station:USF.COMPS:FHP:1,2019-07-01T07:54:00,28.1530,-82.8010,71.2,11111222 
COMPS,ioos:station:USF.COMPS:FHP:1,2019-07-01T08:54:00,28.1530,-82.8010,73.52,11111222 
COMPS,ioos:station:USF.COMPS:FHP:1,2019-07-01T09:54:00,28.1530,-82.8010,75.76,11111222 
COMPS,ioos:station:USF.COMPS:FHP:1,2019-07-01T10:54:00,28.1530,-82.8010,76.3,11111222 
COMPS,ioos:station:USF.COMPS:FHP:1,2019-07-01T11:54:00,28.1530,-82.8010,72.37,11111222 
COMPS,ioos:station:USF.COMPS:FHP:1,2019-07-01T12:54:00,28.1530,-82.8010,73.89,11111222 
COMPS,ioos:station:USF.COMPS:FHP:1,2019-07-01T13:54:00,28.1530,-82.8010,74.41,11111222 
COMPS,ioos:station:USF.COMPS:FHP:1,2019-07-01T15:54:00,28.1530,-82.8010,69.63,11111222 
COMPS,ioos:station:USF.COMPS:FHP:1,2019-07-01T16:54:00,28.1530,-82.8010,67.7,11111222 
COMPS,ioos:station:USF.COMPS:FHP:1,2019-07-01T17:54:00,28.1530,-82.8010,65.79,11111222 
COMPS,ioos:station:USF.COMPS:FHP:1,2019-07-01T18:54:00,28.1530,-82.8010,65.26,11111222 
COMPS,ioos:station:USF.COMPS:FHP:1,2019-07-01T19:54:00,28.1530,-82.8010,63.74,11111222 
COMPS,ioos:station:USF.COMPS:FHP:1,2019-07-01T20:54:00,28.1530,-82.8010,65.36,11111222 
COMPS,ioos:station:USF.COMPS:FHP:1,2019-07-01T21:54:00,28.1530,-82.8010,66.7,11111222 
COMPS,ioos:station:USF.COMPS:FHP:1,2019-07-01T22:54:00,28.1530,-82.8010,70.05,11111222 
COMPS,ioos:station:USF.COMPS:FHP:1,2019-07-01T23:54:00,28.1530,-82.8010,74.21,11111222 
COMPS,ioos:station:USF.COMPS:FHP:1,2019-07-02T00:54:00,28.1530,-82.8010,75.09,11111222 
COMPS,ioos:station:USF.COMPS:FHP:1,2019-07-02T01:54:00,28.1530,-82.8010,74.08,11111222 
COMPS,ioos:station:USF.COMPS:FHP:1,2019-07-02T02:54:00,28.1530,-82.8010,74.51,11111222 
COMPS,ioos:station:USF.COMPS:FHP:1,2019-07-02T03:54:00,28.1530,-82.8010,76.03,11111222 
COMPS,ioos:station:USF.COMPS:FHP:1,2019-07-02T04:54:00,28.1530,-82.8010,75.04,11111222 
COMPS,ioos:station:USF.COMPS:FHP:1,2019-07-02T05:54:00,28.1530,-82.8010,76.62,11111222 
COMPS,ioos:station:USF.COMPS:FHP:1,2019-07-02T06:54:00,28.1530,-82.8010,75.47,11111222 
COMPS,ioos:station:USF.COMPS:FHP:1,2019-07-02T07:54:00,28.1530,-82.8010,77.55,11111222 
COMPS,ioos:station:USF.COMPS:FHP:1,2019-07-02T08:54:00,28.1530,-82.8010,74.74,11111222 
COMPS,ioos:station:USF.COMPS:FHP:1,2019-07-02T09:54:00,28.1530,-82.8010,75.29,11111222 
COMPS,ioos:station:USF.COMPS:FHP:1,2019-07-02T10:54:00,28.1530,-82.8010,75.42,11111222 
COMPS,ioos:station:USF.COMPS:FHP:1,2019-07-02T11:54:00,28.1530,-82.8010,72.85,11111222 
COMPS,ioos:station:USF.COMPS:FHP:1,2019-07-02T12:54:00,28.1530,-82.8010,74.32,11111222 
COMPS,ioos:station:USF.COMPS:FHP:1,2019-07-02T13:54:00,28.1530,-82.8010,74.37,11111222 
COMPS,ioos:station:USF.COMPS:FHP:1,2019-07-02T14:54:00,28.1530,-82.8010,74.54,11111222 
COMPS,ioos:station:USF.COMPS:FHP:1,2019-07-02T15:54:00,28.1530,-82.8010,75.78,11111222 
COMPS,ioos:station:USF.COMPS:FHP:1,2019-07-02T16:54:00,28.1530,-82.8010,73.81,11111222 
COMPS,ioos:station:USF.COMPS:FHP:1,2019-07-02T17:54:00,28.1530,-82.8010,67.91,11111222 
COMPS,ioos:station:USF.COMPS:FHP:1,2019-07-02T18:54:00,28.1530,-82.8010,68.05,11111222 
COMPS,ioos:station:USF.COMPS:FHP:1,2019-07-02T19:54:00,28.1530,-82.8010,66.86,11111222 
COMPS,ioos:station:USF.COMPS:FHP:1,2019-07-02T20:54:00,28.1530,-82.8010,67.8,11111222 
COMPS,ioos:station:USF.COMPS:FHP:1,2019-07-02T21:54:00,28.1530,-82.8010,68.87,11111222 
COMPS,ioos:station:USF.COMPS:FHP:1,2019-07-02T22:54:00,28.1530,-82.8010,69.19,11111222 
COMPS,ioos:station:USF.COMPS:FHP:1,2019-07-02T23:54:00,28.1530,-82.8010,70.39,11111222 
COMPS,ioos:station:USF.COMPS:FHP:1,2019-07-03T00:54:00,28.1530,-82.8010,72.69,11111222 
COMPS,ioos:station:USF.COMPS:FHP:1,2019-07-03T01:54:00,28.1530,-82.8010,72.72,11111222 
COMPS,ioos:station:USF.COMPS:FHP:1,2019-07-03T02:54:00,28.1530,-82.8010,74.88,11111222 
COMPS,ioos:station:USF.COMPS:FHP:1,2019-07-03T03:54:00,28.1530,-82.8010,75.98,11111222 
COMPS,ioos:station:USF.COMPS:FHP:1,2019-07-03T04:54:00,28.1530,-82.8010,76.31,11111222 
COMPS,ioos:station:USF.COMPS:FHP:1,2019-07-03T05:54:00,28.1530,-82.8010,76.57,11111222 
COMPS,ioos:station:USF.COMPS:FHP:1,2019-07-03T06:54:00,28.1530,-82.8010,75.89,11111222 
COMPS,ioos:station:USF.COMPS:FHP:1,2019-07-03T07:54:00,28.1530,-82.8010,77.07,11111222 
COMPS,ioos:station:USF.COMPS:FHP:1,2019-07-03T08:54:00,28.1530,-82.8010,79.79,11111222 
COMPS,ioos:station:USF.COMPS:FHP:1,2019-07-03T09:54:00,28.1530,-82.8010,78.71,11111222 
COMPS,ioos:station:USF.COMPS:FHP:1,2019-07-03T10:54:00,28.1530,-82.8010,77.83,11111222 
COMPS,ioos:station:USF.COMPS:FHP:1,2019-07-03T11:54:00,28.1530,-82.8010,77.48,11111222 
COMPS,ioos:station:USF.COMPS:FHP:1,2019-07-03T12:54:00,28.1530,-82.8010,76.98,11111222 
COMPS,ioos:station:USF.COMPS:FHP:1,2019-07-03T13:54:00,28.1530,-82.8010,76.0,11111222 
COMPS,ioos:station:USF.COMPS:FHP:1,2019-07-03T14:54:00,28.1530,-82.8010,75.26,11111222 
COMPS,ioos:station:USF.COMPS:FHP:1,2019-07-03T15:54:00,28.1530,-82.8010,74.52,11111222 
COMPS,ioos:station:USF.COMPS:FHP:1,2019-07-03T16:54:00,28.1530,-82.8010,75.27,11111222 
COMPS,ioos:station:USF.COMPS:FHP:1,2019-07-03T17:54:00,28.1530,-82.8010,72.55,11111222 
COMPS,ioos:station:USF.COMPS:FHP:1,2019-07-03T18:54:00,28.1530,-82.8010,74.04,11111222 
COMPS,ioos:station:USF.COMPS:FHP:1,2019-07-03T19:54:00,28.1530,-82.8010,70.47,11111222 
COMPS,ioos:station:USF.COMPS:FHP:1,2019-07-03T20:54:00,28.1530,-82.8010,71.55,11111222 
COMPS,ioos:station:USF.COMPS:FHP:1,2019-07-03T21:54:00,28.1530,-82.8010,71.71,11111222 
COMPS,ioos:station:USF.COMPS:FHP:1,2019-07-03T22:54:00,28.1530,-82.8010,70.74,11111222 
COMPS,ioos:station:USF.COMPS:FHP:1,2019-07-03T23:54:00,28.1530,-82.8010,71.14,11111222 
COMPS,ioos:station:USF.COMPS:FHP:1,2019-07-04T00:54:00,28.1530,-82.8010,76.36,11111222 
COMPS,ioos:station:USF.COMPS:FHP:1,2019-07-04T01:54:00,28.1530,-82.8010,75.53,11111222 
COMPS,ioos:station:USF.COMPS:FHP:1,2019-07-04T02:54:00,28.1530,-82.8010,76.29,11111222 
COMPS,ioos:station:USF.COMPS:FHP:1,2019-07-04T03:54:00,28.1530,-82.8010,76.02,11111222 
COMPS,ioos:station:USF.COMPS:FHP:1,2019-07-04T04:54:00,28.1530,-82.8010,77.17,11111222 
COMPS,ioos:station:USF.COMPS:FHP:1,2019-07-04T05:54:00,28.1530,-82.8010,84.48,11111222 
COMPS,ioos:station:USF.COMPS:FHP:1,2019-07-04T06:54:00,28.1530,-82.8010,88.09,11111222 
COMPS,ioos:station:USF.COMPS:FHP:1,2019-07-04T07:54:00,28.1530,-82.8010,81.57,11111222 
COMPS,ioos:station:USF.COMPS:FHP:1,2019-07-04T08:54:00,28.1530,-82.8010,89.52,11111222 
COMPS,ioos:station:USF.COMPS:FHP:1,2019-07-04T09:54:00,28.1530,-82.8010,86.1,11111222 
COMPS,ioos:station:USF.COMPS:FHP:1,2019-07-04T10:54:00,28.1530,-82.8010,83.9,11111222 
COMPS,ioos:station:USF.COMPS:FHP:1,2019-07-04T11:54:00,28.1530,-82.8010,81.44,11111222 
COMPS,ioos:station:USF.COMPS:FHP:1,2019-07-04T12:54:00,28.1530,-82.8010,82.54,11111222 
COMPS,ioos:station:USF.COMPS:FHP:1,2019-07-04T13:54:00,28.1530,-82.8010,71.32,11111222 
COMPS,ioos:station:USF.COMPS:FHP:1,2019-07-04T14:54:00,28.1530,-82.8010,70.2,11111222 
COMPS,ioos:station:USF.COMPS:FHP:1,2019-07-04T15:54:00,28.1530,-82.8010,71.57,11111222 
COMPS,ioos:station:USF.COMPS:FHP:1,2019-07-04T16:54:00,28.1530,-82.8010,69.03,11111222 
COMPS,ioos:station:USF.COMPS:FHP:1,2019-07-04T17:54:00,28.1530,-82.8010,70.49,11111222 
COMPS,ioos:station:USF.COMPS:FHP:1,2019-07-04T18:54:00,28.1530,-82.8010,77.67,11111222 
COMPS,ioos:station:USF.COMPS:FHP:1,2019-07-04T19:54:00,28.1530,-82.8010,72.02,11111222 
COMPS,ioos:station:USF.COMPS:FHP:1,2019-07-04T20:54:00,28.1530,-82.8010,66.03,11111222 
COMPS,ioos:station:USF.COMPS:FHP:1,2019-07-04T21:54:00,28.1530,-82.8010,76.02,11111222 
COMPS,ioos:station:USF.COMPS:FHP:1,2019-07-04T22:54:00,28.1530,-82.8010,71.53,11111222 
COMPS,ioos:station:USF.COMPS:FHP:1,2019-07-04T23:54:00,28.1530,-82.8010,79.09,11111222 
COMPS,ioos:station:USF.COMPS:FHP:1,2019-07-05T00:54:00,28.1530,-82.8010,78.83,11111222 
COMPS,ioos:station:USF.COMPS:FHP:1,2019-07-05T01:54:00,28.1530,-82.8010,81.58,11111222 
COMPS,ioos:station:USF.COMPS:FHP:1,2019-07-05T02:54:00,28.1530,-82.8010,84.45,11111222 
COMPS,ioos:station:USF.COMPS:FHP:1,2019-07-05T03:54:00,28.1530,-82.8010,85.37,11111222 
COMPS,ioos:station:USF.COMPS:FHP:1,2019-07-05T04:54:00,28.1530,-82.8010,85.05,11111222 
COMPS,ioos:station:USF.COMPS:FHP:1,2019-07-05T05:54:00,28.1530,-82.8010,86.12,11111222 
COMPS,ioos:station:USF.COMPS:FHP:1,2019-07-05T06:54:00,28.1530,-82.8010,85.74,11111222 
COMPS,ioos:station:USF.COMPS:FHP:1,2019-07-05T07:54:00,28.1530,-82.8010,87.55,11111222 
COMPS,ioos:station:USF.COMPS:FHP:1,2019-07-05T08:54:00,28.1530,-82.8010,88.43,11111222 
COMPS,ioos:station:USF.COMPS:FHP:1,2019-07-05T09:54:00,28.1530,-82.8010,90.3,11111222 
COMPS,ioos:station:USF.COMPS:FHP:1,2019-07-05T10:54:00,28.1530,-82.8010,90.86,11111222 
COMPS,ioos:station:USF.COMPS:FHP:1,2019-07-05T11:54:00,28.1530,-82.8010,88.55,11111222 
COMPS,ioos:station:USF.COMPS:FHP:1,2019-07-05T12:54:00,28.1530,-82.8010,84.47,11111222 
COMPS,ioos:station:USF.COMPS:FHP:1,2019-07-05T13:54:00,28.1530,-82.8010,77.23,11111222 
COMPS,ioos:station:USF.COMPS:FHP:1,2019-07-05T14:54:00,28.1530,-82.8010,74.58,11111222 
COMPS,ioos:station:USF.COMPS:FHP:1,2019-07-05T15:54:00,28.1530,-82.8010,72.83,11111222 
COMPS,ioos:station:USF.COMPS:FHP:1,2019-07-05T16:54:00,28.1530,-82.8010,73.02,11111222 
COMPS,ioos:station:USF.COMPS:FHP:1,2019-07-05T17:54:00,28.1530,-82.8010,72.5,11111222 
COMPS,ioos:station:USF.COMPS:FHP:1,2019-07-05T18:54:00,28.1530,-82.8010,71.3,11111222 
COMPS,ioos:station:USF.COMPS:FHP:1,2019-07-05T19:54:00,28.1530,-82.8010,76.84,11111222 
COMPS,ioos:station:USF.COMPS:FHP:1,2019-07-05T20:54:00,28.1530,-82.8010,77.25,11111222 
COMPS,ioos:station:USF.COMPS:FHP:1,2019-07-05T21:54:00,28.1530,-82.8010,72.68,11111222 
COMPS,ioos:station:USF.COMPS:FHP:1,2019-07-05T22:54:00,28.1530,-82.8010,77.87,11111222 
COMPS,ioos:station:USF.COMPS:FHP:1,2019-07-05T23:54:00,28.1530,-82.8010,76.58,11111222 
COMPS,ioos:station:USF.COMPS:FHP:1,2019-07-06T00:54:00,28.1530,-82.8010,82.66,11111222 
COMPS,ioos:station:USF.COMPS:FHP:1,2019-07-06T01:54:00,28.1530,-82.8010,80.1,11111222 
COMPS,ioos:station:USF.COMPS:FHP:1,2019-07-06T02:54:00,28.1530,-82.8010,84.09,11111222 
COMPS,ioos:station:USF.COMPS:FHP:1,2019-07-06T03:54:00,28.1530,-82.8010,81.26,11111222 
COMPS,ioos:station:USF.COMPS:FHP:1,2019-07-06T04:54:00,28.1530,-82.8010,82.52,11111222 
COMPS,ioos:station:USF.COMPS:FHP:1,2019-07-06T05:54:00,28.1530,-82.8010,80.01,11111222 
COMPS,ioos:station:USF.COMPS:FHP:1,2019-07-06T06:54:00,28.1530,-82.8010,82.0,11111222 
COMPS,ioos:station:USF.COMPS:FHP:1,2019-07-06T07:54:00,28.1530,-82.8010,86.1,11111222 
COMPS,ioos:station:USF.COMPS:FHP:1,2019-07-06T08:54:00,28.1530,-82.8010,88.7,11111222 
COMPS,ioos:station:USF.COMPS:FHP:1,2019-07-06T09:54:00,28.1530,-82.8010,89.87,11111222 
COMPS,ioos:station:USF.COMPS:FHP:1,2019-07-06T10:54:00,28.1530,-82.8010,90.06,11111222 
COMPS,ioos:station:USF.COMPS:FHP:1,2019-07-06T11:54:00,28.1530,-82.8010,86.83,11111222 
COMPS,ioos:station:USF.COMPS:FHP:1,2019-07-06T12:54:00,28.1530,-82.8010,86.05,11111222 
COMPS,ioos:station:USF.COMPS:FHP:1,2019-07-06T13:54:00,28.1530,-82.8010,76.43,11111222 
COMPS,ioos:station:USF.COMPS:FHP:1,2019-07-06T14:54:00,28.1530,-82.8010,73.49,11111222 
COMPS,ioos:station:USF.COMPS:FHP:1,2019-07-06T15:54:00,28.1530,-82.8010,73.49,11111222 
COMPS,ioos:station:USF.COMPS:FHP:1,2019-07-06T16:54:00,28.1530,-82.8010,74.79,11111222 
COMPS,ioos:station:USF.COMPS:FHP:1,2019-07-06T17:54:00,28.1530,-82.8010,77.35,11111222 
COMPS,ioos:station:USF.COMPS:FHP:1,2019-07-06T18:54:00,28.1530,-82.8010,81.13,11111222 
COMPS,ioos:station:USF.COMPS:FHP:1,2019-07-06T19:54:00,28.1530,-82.8010,80.83,11111222 
COMPS,ioos:station:USF.COMPS:FHP:1,2019-07-06T20:54:00,28.1530,-82.8010,81.2,11111222 
COMPS,ioos:station:USF.COMPS:FHP:1,2019-07-06T21:54:00,28.1530,-82.8010,81.27,11111222 
COMPS,ioos:station:USF.COMPS:FHP:1,2019-07-06T22:54:00,28.1530,-82.8010,87.47,11111222 
COMPS,ioos:station:USF.COMPS:FHP:1,2019-07-06T23:54:00,28.1530,-82.8010,88.81,11111222 
COMPS,ioos:station:USF.COMPS:FHP:1,2019-07-07T00:54:00,28.1530,-82.8010,87.01,11111222 
COMPS,ioos:station:USF.COMPS:FHP:1,2019-07-07T01:54:00,28.1530,-82.8010,91.58,11111222 
COMPS,ioos:station:USF.COMPS:FHP:1,2019-07-07T02:54:00,28.1530,-82.8010,93.21,11111222 
COMPS,ioos:station:USF.COMPS:FHP:1,2019-07-07T03:54:00,28.1530,-82.8010,93.58,11111222 
COMPS,ioos:station:USF.COMPS:FHP:1,2019-07-07T04:54:00,28.1530,-82.8010,91.46,11111222 
COMPS,ioos:station:USF.COMPS:FHP:1,2019-07-07T05:54:00,28.1530,-82.8010,89.4,11111222 
COMPS,ioos:station:USF.COMPS:FHP:1,2019-07-07T06:54:00,28.1530,-82.8010,85.86,11111222 
COMPS,ioos:station:USF.COMPS:FHP:1,2019-07-07T07:54:00,28.1530,-82.8010,90.09,11111222 
COMPS,ioos:station:USF.COMPS:FHP:1,2019-07-07T08:54:00,28.1530,-82.8010,91.58,11111222 
COMPS,ioos:station:USF.COMPS:FHP:1,2019-07-07T09:54:00,28.1530,-82.8010,93.16,11111222 
COMPS,ioos:station:USF.COMPS:FHP:1,2019-07-07T10:54:00,28.1530,-82.8010,83.03,11111222 
COMPS,ioos:station:USF.COMPS:FHP:1,2019-07-07T11:54:00,28.1530,-82.8010,87.08,11111222 
COMPS,ioos:station:USF.COMPS:FHP:1,2019-07-07T12:54:00,28.1530,-82.8010,80.61,11111222 
COMPS,ioos:station:USF.COMPS:FHP:1,2019-07-07T13:54:00,28.1530,-82.8010,81.87,11111222 
COMPS,ioos:station:USF.COMPS:FHP:1,2019-07-07T14:54:00,28.1530,-82.8010,77.24,11111222 
COMPS,ioos:station:USF.COMPS:FHP:1,2019-07-07T15:54:00,28.1530,-82.8010,78.05,11111222 
COMPS,ioos:station:USF.COMPS:FHP:1,2019-07-07T16:54:00,28.1530,-82.8010,79.42,11111222 
COMPS,ioos:station:USF.COMPS:FHP:1,2019-07-07T17:54:00,28.1530,-82.8010,74.23,11111222 
COMPS,ioos:station:USF.COMPS:FHP:1,2019-07-07T18:54:00,28.1530,-82.8010,77.97,11111222 
COMPS,ioos:station:USF.COMPS:FHP:1,2019-07-07T19:54:00,28.1530,-82.8010,76.56,11111222 
COMPS,ioos:station:USF.COMPS:FHP:1,2019-07-07T20:54:00,28.1530,-82.8010,76.76,11111222 
COMPS,ioos:station:USF.COMPS:FHP:1,2019-07-07T21:54:00,28.1530,-82.8010,79.16,11111222 
COMPS,ioos:station:USF.COMPS:FHP:1,2019-07-07T22:54:00,28.1530,-82.8010,73.77,11111222 
COMPS,ioos:station:USF.COMPS:FHP:1,2019-07-07T23:54:00,28.1530,-82.8010,78.5,11111222 
COMPS,ioos:station:USF.COMPS:FHP:1,2019-07-08T00:54:00,28.1530,-82.8010,75.63,11111222 
COMPS,ioos:station:USF.COMPS:FHP:1,2019-07-08T01:54:00,28.1530,-82.8010,79.15,11111222 
COMPS,ioos:station:USF.COMPS:FHP:1,2019-07-08T02:54:00,28.1530,-82.8010,80.44,11111222 
COMPS,ioos:station:USF.COMPS:FHP:1,2019-07-08T03:54:00,28.1530,-82.8010,85.08,11111222 
COMPS,ioos:station:USF.COMPS:FHP:1,2019-07-08T04:54:00,28.1530,-82.8010,86.2,11111222 
COMPS,ioos:station:USF.COMPS:FHP:1,2019-07-08T05:54:00,28.1530,-82.8010,91.34,11111222 
COMPS,ioos:station:USF.COMPS:FHP:1,2019-07-08T06:54:00,28.1530,-82.8010,91.85,11111222 
COMPS,ioos:station:USF.COMPS:FHP:1,2019-07-08T07:54:00,28.1530,-82.8010,88.98,11111222 
COMPS,ioos:station:USF.COMPS:FHP:1,2019-07-08T08:54:00,28.1530,-82.8010,88.35,11111222 
COMPS,ioos:station:USF.COMPS:FHP:1,2019-07-08T09:54:00,28.1530,-82.8010,85.07,11111222 
COMPS,ioos:station:USF.COMPS:FHP:1,2019-07-08T10:54:00,28.1530,-82.8010,87.69,11111222 
COMPS,ioos:station:USF.COMPS:FHP:1,2019-07-08T11:54:00,28.1530,-82.8010,93.13,11111222 
COMPS,ioos:station:USF.COMPS:FHP:1,2019-07-08T12:54:00,28.1530,-82.8010,89.99,11111222 
COMPS,ioos:station:USF.COMPS:FHP:1,2019-07-08T13:54:00,28.1530,-82.8010,89.61,11111222 
COMPS,ioos:station:USF.COMPS:FHP:1,2019-07-08T14:54:00,28.1530,-82.8010,84.67,11111222 
COMPS,ioos:station:USF.COMPS:FHP:1,2019-07-08T15:54:00,28.1530,-82.8010,86.83,11111222 
COMPS,ioos:station:USF.COMPS:FHP:1,2019-07-08T16:54:00,28.1530,-82.8010,77.15,11111222 
COMPS,ioos:station:USF.COMPS:FHP:1,2019-07-08T17:54:00,28.1530,-82.8010,81.88,11111222 
COMPS,ioos:station:USF.COMPS:FHP:1,2019-07-08T18:54:00,28.1530,-82.8010,79.73,11111222 
COMPS,ioos:station:USF.COMPS:FHP:1,2019-07-08T19:54:00,28.1530,-82.8010,83.26,11111222 
COMPS,ioos:station:USF.COMPS:FHP:1,2019-07-08T20:54:00,28.1530,-82.8010,80.6,11111222 
COMPS,ioos:station:USF.COMPS:FHP:1,2019-07-08T21:54:00,28.1530,-82.8010,80.21,11111222 
COMPS,ioos:station:USF.COMPS:FHP:1,2019-07-08T22:54:00,28.1530,-82.8010,80.5,11111222 
COMPS,ioos:station:USF.COMPS:FHP:1,2019-07-08T23:54:00,28.1530,-82.8010,80.64,11111222 
COMPS,ioos:station:USF.COMPS:FHP:1,2019-07-09T00:54:00,28.1530,-82.8010,79.03,11111222 
COMPS,ioos:station:USF.COMPS:FHP:1,2019-07-09T01:54:00,28.1530,-82.8010,75.85,11111222 
COMPS,ioos:station:USF.COMPS:FHP:1,2019-07-09T02:54:00,28.1530,-82.8010,80.56,11111222 
COMPS,ioos:station:USF.COMPS:FHP:1,2019-07-09T03:54:00,28.1530,-82.8010,78.18,11111222 
COMPS,ioos:station:USF.COMPS:FHP:1,2019-07-09T04:54:00,28.1530,-82.8010,72.13,11111222 
COMPS,ioos:station:USF.COMPS:FHP:1,2019-07-09T05:54:00,28.1530,-82.8010,73.77,11111222 
COMPS,ioos:station:USF.COMPS:FHP:1,2019-07-09T06:54:00,28.1530,-82.8010,76.54,11111222 
COMPS,ioos:station:USF.COMPS:FHP:1,2019-07-09T07:54:00,28.1530,-82.8010,79.06,11111222 
COMPS,ioos:station:USF.COMPS:FHP:1,2019-07-09T08:54:00,28.1530,-82.8010,74.02,11111222 
COMPS,ioos:station:USF.COMPS:FHP:1,2019-07-09T09:54:00,28.1530,-82.8010,78.82,11111222 
COMPS,ioos:station:USF.COMPS:FHP:1,2019-07-09T10:54:00,28.1530,-82.8010,82.62,11111222 
COMPS,ioos:station:USF.COMPS:FHP:1,2019-07-09T11:54:00,28.1530,-82.8010,83.05,11111222 
COMPS,ioos:station:USF.COMPS:FHP:1,2019-07-09T12:54:00,28.1530,-82.8010,83.36,11111222 
COMPS,ioos:station:USF.COMPS:FHP:1,2019-07-09T13:54:00,28.1530,-82.8010,84.82,11111222 
COMPS,ioos:station:USF.COMPS:FHP:1,2019-07-09T14:54:00,28.1530,-82.8010,80.04,11111222 
COMPS,ioos:station:USF.COMPS:FHP:1,2019-07-09T15:54:00,28.1530,-82.8010,82.12,11111222 
COMPS,ioos:station:USF.COMPS:FHP:1,2019-07-09T16:54:00,28.1530,-82.8010,92.49,11111222 
COMPS,ioos:station:USF.COMPS:FHP:1,2019-07-09T17:54:00,28.1530,-82.8010,94.01,11111222 
COMPS,ioos:station:USF.COMPS:FHP:1,2019-07-09T18:54:00,28.1530,-82.8010,95.13,11111222 
COMPS,ioos:station:USF.COMPS:FHP:1,2019-07-09T19:54:00,28.1530,-82.8010,90.02,11111222 
COMPS,ioos:station:USF.COMPS:FHP:1,2019-07-09T20:54:00,28.1530,-82.8010,90.82,11111222 
COMPS,ioos:station:USF.COMPS:FHP:1,2019-07-09T21:54:00,28.1530,-82.8010,87.13,11111222 
COMPS,ioos:station:USF.COMPS:FHP:1,2019-07-09T22:54:00,28.1530,-82.8010,88.34,11111222 
COMPS,ioos:station:USF.COMPS:FHP:1,2019-07-09T23:54:00,28.1530,-82.8010,86.89,11111222 
COMPS,ioos:station:USF.COMPS:FHP:1,2019-07-10T00:54:00,28.1530,-82.8010,83.95,11111222 
COMPS,ioos:station:USF.COMPS:FHP:1,2019-07-10T01:54:00,28.1530,-82.8010,81.67,11111222 
COMPS,ioos:station:USF.COMPS:FHP:1,2019-07-10T02:54:00,28.1530,-82.8010,96.97,11111222 
COMPS,ioos:station:USF.COMPS:FHP:1,2019-07-10T03:54:00,28.1530,-82.8010,97.59,11111222 
COMPS,ioos:station:USF.COMPS:FHP:1,2019-07-10T04:54:00,28.1530,-82.8010,97.02,11111222 
COMPS,ioos:station:USF.COMPS:FHP:1,2019-07-10T05:54:00,28.1530,-82.8010,87.86,11111222 
COMPS,ioos:station:USF.COMPS:FHP:1,2019-07-10T06:54:00,28.1530,-82.8010,88.26,11111222 
COMPS,ioos:station:USF.COMPS:FHP:1,2019-07-10T07:54:00,28.1530,-82.8010,94.31,11111222 
COMPS,ioos:station:USF.COMPS:FHP:1,2019-07-10T08:54:00,28.1530,-82.8010,95.34,11111222 
COMPS,ioos:station:USF.COMPS:FHP:1,2019-07-10T09:54:00,28.1530,-82.8010,93.13,11111222 
COMPS,ioos:station:USF.COMPS:FHP:1,2019-07-10T10:54:00,28.1530,-82.8010,94.57,11111222 
COMPS,ioos:station:USF.COMPS:FHP:1,2019-07-10T11:54:00,28.1530,-82.8010,90.49,11111222 
COMPS,ioos:station:USF.COMPS:FHP:1,2019-07-10T12:54:00,28.1530,-82.8010,87.81,11111222 
COMPS,ioos:station:USF.COMPS:FHP:1,2019-07-10T13:54:00,28.1530,-82.8010,83.8,11111222 
COMPS,ioos:station:USF.COMPS:FHP:1,2019-07-10T14:54:00,28.1530,-82.8010,94.84,11111222 
COMPS,ioos:station:USF.COMPS:FHP:1,2019-07-10T15:54:00,28.1530,-82.8010,92.19,11111222 
COMPS,ioos:station:USF.COMPS:FHP:1,2019-07-10T16:54:00,28.1530,-82.8010,86.0,11111222 
COMPS,ioos:station:USF.COMPS:FHP:1,2019-07-10T17:54:00,28.1530,-82.8010,82.01,11111222 
COMPS,ioos:station:USF.COMPS:FHP:1,2019-07-10T18:54:00,28.1530,-82.8010,78.4,11111222 
COMPS,ioos:station:USF.COMPS:FHP:1,2019-07-10T19:54:00,28.1530,-82.8010,78.99,11111222 
COMPS,ioos:station:USF.COMPS:FHP:1,2019-07-10T20:54:00,28.1530,-82.8010,78.67,11111222 
COMPS,ioos:station:USF.COMPS:FHP:1,2019-07-10T21:54:00,28.1530,-82.8010,77.65,11111222 
COMPS,ioos:station:USF.COMPS:FHP:1,2019-07-10T22:54:00,28.1530,-82.8010,78.36,11111222 
COMPS,ioos:station:USF.COMPS:FHP:1,2019-07-10T23:54:00,28.1530,-82.8010,76.48,11111222 
COMPS,ioos:station:USF.COMPS:FHP:1,2019-07-11T00:54:00,28.1530,-82.8010,74.53,11111222 
COMPS,ioos:station:USF.COMPS:FHP:1,2019-07-11T01:54:00,28.1530,-82.8010,81.37,11111222 
COMPS,ioos:station:USF.COMPS:FHP:1,2019-07-11T02:54:00,28.1530,-82.8010,84.81,11111222 
COMPS,ioos:station:USF.COMPS:FHP:1,2019-07-11T03:54:00,28.1530,-82.8010,84.4,11111222 
COMPS,ioos:station:USF.COMPS:FHP:1,2019-07-11T04:54:00,28.1530,-82.8010,84.39,11111222 
COMPS,ioos:station:USF.COMPS:FHP:1,2019-07-11T05:54:00,28.1530,-82.8010,86.77,11111222 
COMPS,ioos:station:USF.COMPS:FHP:1,2019-07-11T06:54:00,28.1530,-82.8010,88.53,11111222 
COMPS,ioos:station:USF.COMPS:FHP:1,2019-07-11T07:54:00,28.1530,-82.8010,90.38,11111222 
COMPS,ioos:station:USF.COMPS:FHP:1,2019-07-11T08:54:00,28.1530,-82.8010,92.88,11111222 
COMPS,ioos:station:USF.COMPS:FHP:1,2019-07-11T09:54:00,28.1530,-82.8010,92.92,11111222 
COMPS,ioos:station:USF.COMPS:FHP:1,2019-07-11T10:54:00,28.1530,-82.8010,92.8,11111222 
COMPS,ioos:station:USF.COMPS:FHP:1,2019-07-11T11:54:00,28.1530,-82.8010,88.68,11111222 
COMPS,ioos:station:USF.COMPS:FHP:1,2019-07-11T12:54:00,28.1530,-82.8010,85.5,11111222 
COMPS,ioos:station:USF.COMPS:FHP:1,2019-07-11T13:54:00,28.1530,-82.8010,82.12,11111222 
COMPS,ioos:station:USF.COMPS:FHP:1,2019-07-11T14:54:00,28.1530,-82.8010,85.19,11111222 
COMPS,ioos:station:USF.COMPS:FHP:1,2019-07-11T15:54:00,28.1530,-82.8010,81.99,11111222 
COMPS,ioos:station:USF.COMPS:FHP:1,2019-07-11T16:54:00,28.1530,-82.8010,78.49,11111222 
COMPS,ioos:station:USF.COMPS:FHP:1,2019-07-11T17:54:00,28.1530,-82.8010,76.59,11111222 
COMPS,ioos:station:USF.COMPS:FHP:1,2019-07-11T18:54:00,28.1530,-82.8010,86.03,11111222 
COMPS,ioos:station:USF.COMPS:FHP:1,2019-07-11T19:54:00,28.1530,-82.8010,81.16,11111222 
COMPS,ioos:station:USF.COMPS:FHP:1,2019-07-11T20:54:00,28.1530,-82.8010,77.86,11111222 
COMPS,ioos:station:USF.COMPS:FHP:1,2019-07-11T21:54:00,28.1530,-82.8010,74.55,11111222 
COMPS,ioos:station:USF.COMPS:FHP:1,2019-07-11T22:54:00,28.1530,-82.8010,77.48,11111222 
COMPS,ioos:station:USF.COMPS:FHP:1,2019-07-11T23:54:00,28.1530,-82.8010,77.46,11111222 
COMPS,ioos:station:USF.COMPS:FHP:1,2019-07-12T00:54:00,28.1530,-82.8010,82.39,11111222 
COMPS,ioos:station:USF.COMPS:FHP:1,2019-07-12T01:54:00,28.1530,-82.8010,88.05,11111222 
COMPS,ioos:station:USF.COMPS:FHP:1,2019-07-12T02:54:00,28.1530,-82.8010,89.2,11111222 
COMPS,ioos:station:USF.COMPS:FHP:1,2019-07-12T03:54:00,28.1530,-82.8010,88.64,11111222 
COMPS,ioos:station:USF.COMPS:FHP:1,2019-07-12T04:54:00,28.1530,-82.8010,89.76,11111222 
COMPS,ioos:station:USF.COMPS:FHP:1,2019-07-12T05:54:00,28.1530,-82.8010,89.4,11111222 
COMPS,ioos:station:USF.COMPS:FHP:1,2019-07-12T06:54:00,28.1530,-82.8010,87.62,11111222 
COMPS,ioos:station:USF.COMPS:FHP:1,2019-07-12T07:54:00,28.1530,-82.8010,88.69,11111222 
COMPS,ioos:station:USF.COMPS:FHP:1,2019-07-12T08:54:00,28.1530,-82.8010,92.16,11111222 